TimeHST,TemperatureF,Dew PointF,Humidity,Sea Level PressureIn,VisibilityMPH,Wind Direction,Wind SpeedMPH,Gust SpeedMPH,PrecipitationIn,Events,Conditions,WindDirDegrees,DateUTC
12:28 AM,71.6,66.2,83,30.15,10.0,East,11.5,-,N/A,,Overcast,80,2013-02-08 10:28:00
12:50 AM,71.6,66.2,83,30.14,10.0,ENE,10.4,-,N/A,,Overcast,70,2013-02-08 10:50:00
12:53 AM,72.0,66.0,81,30.13,10.0,ENE,9.2,-,N/A,,Overcast,70,2013-02-08 10:53:00
1:53 AM,72.0,66.0,81,30.14,10.0,ENE,9.2,-,N/A,,Overcast,70,2013-02-08 11:53:00
2:53 AM,72.0,64.9,78,30.12,10.0,ENE,10.4,-,N/A,,Mostly Cloudy,70,2013-02-08 12:53:00
3:46 AM,71.6,64.4,78,30.11,10.0,ENE,10.4,-,N/A,,Mostly Cloudy,60,2013-02-08 13:46:00
3:53 AM,72.0,64.9,78,30.11,10.0,ENE,10.4,-,N/A,,Overcast,70,2013-02-08 13:53:00
4:22 AM,71.6,64.4,78,30.10,10.0,ENE,11.5,-,N/A,,Mostly Cloudy,70,2013-02-08 14:22:00
4:53 AM,72.0,64.9,78,30.10,10.0,ENE,11.5,-,N/A,,Overcast,70,2013-02-08 14:53:00
5:24 AM,71.6,64.4,78,30.11,10.0,ENE,11.5,-,N/A,,Overcast,70,2013-02-08 15:24:00
5:44 AM,71.6,64.4,78,30.11,10.0,ENE,10.4,-,N/A,,Overcast,70,2013-02-08 15:44:00
5:53 AM,72.0,64.9,78,30.11,10.0,ENE,10.4,-,N/A,,Overcast,70,2013-02-08 15:53:00
6:53 AM,72.0,64.9,78,30.13,10.0,ENE,10.4,-,N/A,,Overcast,60,2013-02-08 16:53:00
7:53 AM,72.0,64.9,78,30.14,10.0,ENE,10.4,-,N/A,,Partly Cloudy,70,2013-02-08 17:53:00
8:53 AM,73.9,64.9,73,30.15,10.0,ENE,9.2,-,N/A,,Scattered Clouds,70,2013-02-08 18:53:00
9:53 AM,75.0,66.0,73,30.16,10.0,ENE,9.2,-,N/A,,Scattered Clouds,70,2013-02-08 19:53:00
10:09 AM,75.2,64.4,69,30.17,10.0,ENE,9.2,-,N/A,,Mostly Cloudy,60,2013-02-08 20:09:00
10:16 AM,75.2,64.4,69,30.17,10.0,ENE,9.2,-,N/A,,Scattered Clouds,70,2013-02-08 20:16:00
10:53 AM,75.9,66.0,71,30.16,10.0,ENE,9.2,-,N/A,,Partly Cloudy,60,2013-02-08 20:53:00
11:53 AM,77.0,66.9,71,30.14,10.0,ENE,8.1,-,N/A,,Partly Cloudy,70,2013-02-08 21:53:00
12:53 PM,75.9,66.0,71,30.12,10.0,East,6.9,-,N/A,,Scattered Clouds,80,2013-02-08 22:53:00
1:53 PM,75.9,64.9,69,30.09,10.0,ENE,8.1,-,N/A,,Clear,60,2013-02-08 23:53:00
2:53 PM,75.9,64.0,67,30.08,10.0,ENE,8.1,-,N/A,,Clear,70,2013-02-09 00:53:00
3:53 PM,75.9,64.0,67,30.08,10.0,NE,9.2,-,N/A,,Clear,50,2013-02-09 01:53:00
4:53 PM,75.0,64.0,69,30.09,10.0,NE,8.1,-,N/A,,Clear,50,2013-02-09 02:53:00
5:43 PM,73.4,62.6,69,30.10,10.0,NE,6.9,-,N/A,,Mostly Cloudy,50,2013-02-09 03:43:00
5:53 PM,73.0,63.0,71,30.10,10.0,NE,8.1,-,N/A,,Mostly Cloudy,40,2013-02-09 03:53:00
6:02 PM,71.6,62.6,73,30.10,10.0,NE,6.9,-,N/A,,Scattered Clouds,40,2013-02-09 04:02:00
6:53 PM,-9999,-9999,N/A,30.10,10.0,NE,5.8,-,N/A,,Clear,50,2013-02-09 04:53:00
7:53 PM,70.0,62.1,76,30.11,10.0,NNW,3.5,-,N/A,,Partly Cloudy,330,2013-02-09 05:53:00
8:06 PM,69.8,62.6,78,30.11,10.0,WNW,4.6,-,N/A,,Mostly Cloudy,290,2013-02-09 06:06:00
8:53 PM,69.1,63.0,81,30.12,10.0,WNW,4.6,-,N/A,,Overcast,290,2013-02-09 06:53:00
9:53 PM,68.0,63.0,84,30.12,10.0,WNW,4.6,-,N/A,,Scattered Clouds,300,2013-02-09 07:53:00
10:28 PM,66.2,62.6,88,30.13,10.0,WNW,5.8,-,N/A,,Mostly Cloudy,290,2013-02-09 08:28:00
10:46 PM,66.2,62.6,88,30.13,10.0,WNW,4.6,-,N/A,,Scattered Clouds,300,2013-02-09 08:46:00
10:53 PM,66.9,62.1,84,30.13,10.0,WNW,4.6,-,N/A,,Partly Cloudy,300,2013-02-09 08:53:00
11:53 PM,66.0,62.1,87,30.12,10.0,West,5.8,-,N/A,,Clear,280,2013-02-09 09:53:00